Location: Newark
(25.6108°S, 54.5803°W)
Time: 05:36:52
(UTC+00:00)

deb Explorer IX - Pass Details

Date: 29 October 2020
Orbit: 538 x 1104 km, 38.8° (Epoch: 29 November)

Event Time Altitude Azimuth Distance (km) Brightness Sun altitude
Rises 17:16:32 0° 338° (NNW) 3,770 ? 60.6°
Reaches altitude 10° 17:20:00 10° 352° (N) 2,741 ? 59.9°
Maximum altitude 17:24:49 22° 39° (NE) 1,913 ? 58.9°
Drops below altitude 10° 17:29:13 10° 87° (E) 2,467 ? 57.9°
Sets 17:32:08 0° 102° (ESE) 3,297 ? 57.3°
